| time (UTC) | temp F | wind direction | speed MPH | gust MPH | rain 1hr in | rain 24hr in | rain mn in | humidity % | barometer mb |
| 20260902082406 | 57 | 299 | 10.0 | 17.0 | 0.00 | 0.00 | 0.00 | 57 | 1017.6 |
| 20260902081407 | 57 | 301 | 10.0 | 14.0 | 0.00 | 0.00 | 0.00 | 58 | 1017.6 |
| 20260902080406 | 57 | 304 | 10.0 | 14.0 | 0.00 | 0.00 | 0.00 | 58 | 1017.7 |
| 20260902075406 | 57 | 303 | 10.0 | 14.0 | 0.00 | 0.00 | 0.00 | 58 | 1017.7 |
| 20260902074406 | 57 | 300 | 10.0 | 14.0 | 0.00 | 0.00 | 0.00 | 55 | 1017.7 |
| 20260902073406 | 58 | 300 | 10.0 | 13.0 | 0.00 | 0.00 | 0.00 | 53 | 1017.7 |
| 20260902072406 | 58 | 299 | 10.0 | 14.0 | 0.00 | 0.00 | 0.00 | 52 | 1017.7 |
| 20260902071406 | 58 | 299 | 8.0 | 12.0 | 0.00 | 0.00 | 0.00 | 49 | 1017.7 |
| 20260902070406 | 59 | 302 | 10.0 | 13.0 | 0.00 | 0.00 | 0.00 | 39 | 1017.7 |
| 20260902065406 | 59 | 298 | 8.0 | 13.0 | 0.00 | 0.00 | 0.00 | 27 | 1017.7 |
| 20260902064406 | 59 | 302 | 8.0 | 12.0 | 0.00 | 0.00 | 0.00 | 27 | 1017.7 |
| 20260902063406 | 59 | 299 | 7.0 | 11.0 | 0.00 | 0.00 | 0.00 | 27 | 1017.7 |
| 20260902062406 | 59 | 297 | 6.0 | 10.0 | 0.00 | 0.00 | 0.00 | 23 | 1017.7 |
| 20260902061406 | 60 | 289 | 7.0 | 11.0 | 0.00 | 0.00 | 0.00 | 24 | 1017.7 |
| 20260902060406 | 60 | 296 | 7.0 | 10.0 | 0.00 | 0.00 | 0.00 | 23 | 1017.7 |
| 20260902055406 | 60 | 297 | 5.0 | 9.0 | 0.00 | 0.00 | 0.00 | 23 | 1017.8 |
| 20260902054406 | 61 | 292 | 6.0 | 9.0 | 0.00 | 0.00 | 0.00 | 21 | 1017.9 |
| 20260902053406 | 60 | 287 | 6.0 | 8.0 | 0.00 | 0.00 | 0.00 | 21 | 1017.9 |
| 20260902052406 | 60 | 307 | 4.0 | 7.0 | 0.00 | 0.00 | 0.00 | 23 | 1017.9 |
| 20260902051406 | 60 | 299 | 4.0 | 8.0 | 0.00 | 0.00 | 0.00 | 21 | 1018.0 |
| 20260902050406 | 60 | 302 | 4.0 | 9.0 | 0.00 | 0.00 | 0.00 | 24 | 1018.0 |
| 20260902045406 | 61 | 296 | 5.0 | 9.0 | 0.00 | 0.00 | 0.00 | 22 | 1018.0 |
| 20260902044405 | 61 | 262 | 1.0 | 3.0 | 0.00 | 0.00 | 0.00 | 21 | 1017.7 |
| 20260902043406 | 61 | 0 | 0.0 | 3.0 | 0.00 | 0.00 | 0.00 | 21 | 1017.7 |
| 20260902042406 | 61 | 262 | 2.0 | 4.0 | 0.00 | 0.00 | 0.00 | 21 | 1017.6 |
| 20260902041406 | 61 | 287 | 1.0 | 5.0 | 0.00 | 0.00 | 0.00 | 20 | 1017.6 |
| 20260902040406 | 62 | 287 | 4.0 | 7.0 | 0.00 | 0.00 | 0.00 | 19 | 1017.6 |
| 20260902035406 | 62 | 283 | 4.0 | 8.0 | 0.00 | 0.00 | 0.00 | 20 | 1017.4 |
| 20260902034407 | 61 | 303 | 4.0 | 5.0 | 0.00 | 0.00 | 0.00 | 19 | 1017.2 |
| 20260902033406 | 61 | 301 | 4.0 | 7.0 | 0.00 | 0.00 | 0.00 | 21 | 1017.1 |
| 20260902032406 | 61 | 305 | 5.0 | 7.0 | 0.00 | 0.00 | 0.00 | 20 | 1017.0 |
| 20260902031406 | 62 | 319 | 3.0 | 5.0 | 0.00 | 0.00 | 0.00 | 20 | 1016.8 |
| 20260902030407 | 62 | 314 | 4.0 | 7.0 | 0.00 | 0.00 | 0.00 | 21 | 1016.6 |
| 20260902025406 | 61 | 305 | 4.0 | 7.0 | 0.00 | 0.00 | 0.00 | 22 | 1016.5 |
| 20260902024406 | 61 | 318 | 4.0 | 6.0 | 0.00 | 0.00 | 0.00 | 22 | 1016.5 |
| 20260902023406 | 61 | 318 | 4.0 | 7.0 | 0.00 | 0.00 | 0.00 | 23 | 1016.4 |
| 20260902022406 | 60 | 312 | 5.0 | 7.0 | 0.00 | 0.00 | 0.00 | 26 | 1016.3 |
| 20260902021406 | 59 | 316 | 4.0 | 7.0 | 0.00 | 0.00 | 0.00 | 34 | 1016.2 |
| 20260902020406 | 58 | 323 | 3.0 | 6.0 | 0.00 | 0.00 | 0.00 | 47 | 1016.1 |
| 20260902015406 | 58 | 320 | 3.0 | 7.0 | 0.00 | 0.00 | 0.00 | 59 | 1016.0 |
| 20260902014406 | 59 | 311 | 5.0 | 9.0 | 0.00 | 0.00 | 0.00 | 57 | 1016.0 |
| 20260902013406 | 60 | 318 | 4.0 | 9.0 | 0.00 | 0.00 | 0.00 | 55 | 1016.1 |
| 20260902012409 | 60 | 308 | 6.0 | 13.0 | 0.00 | 0.00 | 0.00 | 55 | 1016.2 |
| 20260902011406 | 61 | 307 | 6.0 | 13.0 | 0.00 | 0.00 | 0.00 | 56 | 1016.2 |
| 20260902010406 | 61 | 311 | 7.0 | 13.0 | 0.00 | 0.00 | 0.00 | 55 | 1016.1 |
| 20260902005407 | 61 | 310 | 9.0 | 13.0 | 0.00 | 0.00 | 0.00 | 54 | 1016.2 |
| 20260902004406 | 61 | 304 | 8.0 | 12.0 | 0.00 | 0.00 | 0.00 | 56 | 1016.2 |
| 20260902003406 | 62 | 300 | 8.0 | 13.0 | 0.00 | 0.00 | 0.00 | 53 | 1016.3 |
| 20260902002406 | 62 | 309 | 8.0 | 13.0 | 0.00 | 0.00 | 0.00 | 52 | 1016.4 |
| 20260902001406 | 63 | 306 | 8.0 | 14.0 | 0.00 | 0.00 | 0.00 | 55 | 1016.4 |
| 20260902000407 | 63 | 299 | 8.0 | 17.0 | 0.00 | 0.00 | 0.00 | 55 | 1016.4 |
| 20260901235406 | 63 | 302 | 5.0 | 13.0 | 0.00 | 0.00 | 0.00 | 53 | 1016.3 |
| 20260901234406 | 63 | 277 | 9.0 | 17.0 | 0.00 | 0.00 | 0.00 | 53 | 1016.3 |
| 20260901233406 | 64 | 289 | 8.0 | 14.0 | 0.00 | 0.00 | 0.00 | 48 | 1016.6 |
| 20260901231909 | 65 | 301 | 4.0 | 10.0 | 0.00 | 0.00 | 0.00 | 54 | 1016.7 |
| 20260901230909 | 64 | 295 | 3.0 | 11.0 | 0.00 | 0.00 | 0.00 | 51 | 1016.7 |
| 20260901225908 | 64 | 270 | 5.0 | 12.0 | 0.00 | 0.00 | 0.00 | 47 | 1016.8 |
| 20260901224408 | 64 | 302 | 5.0 | 10.0 | 0.00 | 0.00 | 0.00 | 52 | 1016.8 |
| 20260901223407 | 64 | 325 | 2.0 | 12.0 | 0.00 | 0.00 | 0.00 | 55 | 1016.9 |
| 20260901222407 | 64 | 326 | 5.0 | 9.0 | 0.00 | 0.00 | 0.00 | 49 | 1016.9 |
| 20260901221407 | 64 | 289 | 6.0 | 12.0 | 0.00 | 0.00 | 0.00 | 53 | 1017.0 |
| 20260901220407 | 65 | 325 | 4.0 | 10.0 | 0.00 | 0.00 | 0.00 | 51 | 1017.0 |
| 20260901215407 | 64 | 316 | 4.0 | 11.0 | 0.00 | 0.00 | 0.00 | 53 | 1017.1 |
| 20260901214407 | 65 | 279 | 4.0 | 13.0 | 0.00 | 0.00 | 0.00 | 55 | 1017.1 |
| 20260901213411 | 64 | 298 | 4.0 | 12.0 | 0.00 | 0.00 | 0.00 | 57 | 1017.2 |
| 20260901212407 | 63 | 296 | 2.0 | 11.0 | 0.00 | 0.00 | 0.00 | 59 | 1017.3 |
| 20260901211407 | 62 | 263 | 4.0 | 11.0 | 0.00 | 0.00 | 0.00 | 60 | 1017.4 |
| 20260901210407 | 62 | 273 | 4.0 | 11.0 | 0.00 | 0.00 | 0.00 | 60 | 1017.5 |
| 20260901205407 | 60 | 262 | 1.0 | 7.0 | 0.00 | 0.00 | 0.00 | 62 | 1017.6 |
| 20260901204407 | 60 | 0 | 0.0 | 8.0 | 0.00 | 0.00 | 0.00 | 63 | 1017.7 |
| 20260901203407 | 60 | 265 | 2.0 | 8.0 | 0.00 | 0.02 | 0.00 | 62 | 1017.7 |
| 20260901202407 | 60 | 280 | 3.0 | 7.0 | 0.00 | 0.02 | 0.00 | 62 | 1017.7 |
| 20260901201410 | 61 | 298 | 2.0 | 6.0 | 0.00 | 0.03 | 0.00 | 62 | 1017.7 |
| 20260901200408 | 60 | 0 | 0.0 | 7.0 | 0.00 | 0.04 | 0.00 | 63 | 1017.8 |
| 20260901195407 | 61 | 0 | 0.0 | 6.0 | 0.00 | 0.05 | 0.00 | 61 | 1017.9 |
| 20260901194407 | 60 | 0 | 0.0 | 7.0 | 0.00 | 0.06 | 0.00 | 63 | 1017.9 |
| 20260901193408 | 60 | 260 | 2.0 | 8.0 | 0.00 | 0.06 | 0.00 | 63 | 1017.9 |
| 20260901192407 | 61 | 205 | 2.0 | 8.0 | 0.00 | 0.06 | 0.00 | 62 | 1018.0 |
| 20260901191408 | 62 | 260 | 4.0 | 10.0 | 0.00 | 0.07 | 0.00 | 60 | 1018.0 |
| 20260901190410 | 61 | 252 | 4.0 | 8.0 | 0.00 | 0.08 | 0.00 | 63 | 1018.0 |
| 20260901185407 | 61 | 248 | 2.0 | 10.0 | 0.00 | 0.09 | 0.00 | 60 | 1018.1 |
| 20260901184408 | 61 | 228 | 4.0 | 9.0 | 0.00 | 0.11 | 0.00 | 61 | 1018.1 |
| 20260901183407 | 61 | 251 | 5.0 | 9.0 | 0.00 | 0.11 | 0.00 | 59 | 1018.0 |
| 20260901182407 | 61 | 248 | 3.0 | 7.0 | 0.00 | 0.11 | 0.00 | 56 | 1018.1 |
| 20260901181407 | 61 | 245 | 3.0 | 7.0 | 0.00 | 0.11 | 0.00 | 58 | 1018.0 |
| 20260901180408 | 60 | 281 | 2.0 | 6.0 | 0.00 | 0.11 | 0.00 | 59 | 1018.1 |
| 20260901175407 | 61 | 0 | 0.0 | 1.0 | 0.00 | 0.11 | 0.00 | 56 | 1018.1 |
| 20260901174407 | 60 | 0 | 0.0 | 4.0 | 0.00 | 0.11 | 0.00 | 59 | 1018.1 |
| 20260901173407 | 61 | 233 | 2.0 | 4.0 | 0.00 | 0.11 | 0.00 | 57 | 1018.1 |
| 20260901172408 | 60 | 233 | 1.0 | 4.0 | 0.00 | 0.11 | 0.00 | 60 | 1018.2 |
| 20260901171407 | 60 | 0 | 0.0 | 3.0 | 0.00 | 0.11 | 0.00 | 58 | 1018.1 |
| 20260901170407 | 59 | 254 | 2.0 | 6.0 | 0.00 | 0.12 | 0.00 | 59 | 1018.0 |
| 20260901165408 | 60 | 191 | 1.0 | 5.0 | 0.00 | 0.12 | 0.00 | 58 | 1018.0 |
| 20260901164407 | 60 | 279 | 1.0 | 4.0 | 0.00 | 0.12 | 0.00 | 56 | 1017.9 |
| 20260901163407 | 60 | 0 | 0.0 | 3.0 | 0.00 | 0.12 | 0.00 | 53 | 1017.7 |
| 20260901162407 | 59 | 0 | 0.0 | 4.0 | 0.00 | 0.12 | 0.00 | 55 | 1017.7 |
| 20260901161409 | 59 | 91 | 2.0 | 6.0 | 0.00 | 0.12 | 0.00 | 53 | 1017.6 |
| 20260901160407 | 59 | 44 | 1.0 | 4.0 | 0.00 | 0.12 | 0.00 | 54 | 1017.6 |
| 20260901155407 | 58 | 0 | 0.0 | 4.0 | 0.00 | 0.12 | 0.00 | 55 | 1017.5 |
| 20260901154407 | 59 | 0 | 0.0 | 4.0 | 0.00 | 0.12 | 0.00 | 54 | 1017.5 |
| 20260901153407 | 59 | 121 | 1.0 | 4.0 | 0.00 | 0.12 | 0.00 | 54 | 1017.4 |
| 20260901152407 | 59 | 91 | 1.0 | 6.0 | 0.00 | 0.12 | 0.00 | 54 | 1017.4 |
| 20260901151407 | 59 | 0 | 0.0 | 3.0 | 0.00 | 0.15 | 0.00 | 53 | 1017.3 |
| 20260901150407 | 58 | 65 | 3.0 | 7.0 | 0.00 | 0.17 | 0.00 | 53 | 1017.3 |
| 20260901145407 | 58 | 61 | 2.0 | 6.0 | 0.00 | 0.18 | 0.00 | 55 | 1017.3 |
| 20260901144408 | 57 | 42 | 2.0 | 6.0 | 0.00 | 0.20 | 0.00 | 56 | 1017.2 |
| 20260901143407 | 57 | 55 | 3.0 | 9.0 | 0.00 | 0.22 | 0.00 | 57 | 1017.1 |
| 20260901142407 | 56 | 55 | 1.0 | 5.0 | 0.00 | 0.24 | 0.00 | 56 | 1017.1 |
| 20260901141407 | 56 | 20 | 3.0 | 9.0 | 0.00 | 0.28 | 0.00 | 53 | 1017.1 |
| 20260901140409 | 55 | 33 | 3.0 | 8.0 | 0.00 | 0.32 | 0.00 | 53 | 1017.0 |
| 20260901135407 | 55 | 36 | 3.0 | 6.0 | 0.00 | 0.36 | 0.00 | 53 | 1016.9 |
| 20260901134407 | 55 | 21 | 4.0 | 8.0 | 0.00 | 0.39 | 0.00 | 54 | 1016.8 |
| 20260901133407 | 54 | 36 | 3.0 | 8.0 | 0.00 | 0.40 | 0.00 | 55 | 1016.7 |
| 20260901132407 | 54 | 352 | 2.0 | 6.0 | 0.00 | 0.41 | 0.00 | 54 | 1016.7 |
| 20260901131407 | 53 | 328 | 3.0 | 8.0 | 0.00 | 0.43 | 0.00 | 54 | 1016.6 |
| 20260901130407 | 53 | 334 | 3.0 | 9.0 | 0.00 | 0.46 | 0.00 | 54 | 1016.5 |
| 20260901125407 | 54 | 313 | 6.0 | 9.0 | 0.00 | 0.47 | 0.00 | 53 | 1016.5 |
| 20260901124407 | 54 | 322 | 4.0 | 8.0 | 0.00 | 0.47 | 0.00 | 53 | 1016.4 |
| 20260901123407 | 54 | 353 | 2.0 | 5.0 | 0.00 | 0.47 | 0.00 | 54 | 1016.3 |
| 20260901122407 | 54 | 21 | 3.0 | 7.0 | 0.00 | 0.47 | 0.00 | 54 | 1016.3 |
| 20260901121407 | 54 | 24 | 3.0 | 7.0 | 0.00 | 0.47 | 0.00 | 50 | 1016.2 |
| 20260901120407 | 55 | 45 | 2.0 | 7.0 | 0.00 | 0.47 | 0.00 | 49 | 1016.2 |
| 20260901115407 | 54 | 19 | 3.0 | 7.0 | 0.00 | 0.47 | 0.00 | 51 | 1016.2 |
| 20260901114407 | 54 | 37 | 3.0 | 6.0 | 0.00 | 0.47 | 0.00 | 50 | 1016.1 |
| 20260901113408 | 54 | 30 | 2.0 | 5.0 | 0.00 | 0.48 | 0.00 | 52 | 1016.2 |
| 20260901112407 | 54 | 8 | 2.0 | 5.0 | 0.00 | 0.49 | 0.00 | 52 | 1016.2 |
| 20260901111408 | 54 | 347 | 2.0 | 7.0 | 0.00 | 0.52 | 0.00 | 51 | 1016.2 |
| 20260901110407 | 54 | 329 | 3.0 | 8.0 | 0.00 | 0.54 | 0.00 | 51 | 1016.2 |
| 20260901105407 | 54 | 341 | 4.0 | 10.0 | 0.00 | 0.54 | 0.00 | 50 | 1016.2 |
| 20260901104408 | 54 | 324 | 5.0 | 9.0 | 0.00 | 0.54 | 0.00 | 49 | 1016.2 |
| 20260901103409 | 54 | 317 | 6.0 | 9.0 | 0.00 | 0.54 | 0.00 | 47 | 1016.2 |
| 20260901102407 | 55 | 320 | 5.0 | 10.0 | 0.00 | 0.54 | 0.00 | 45 | 1016.3 |
| 20260901101407 | 55 | 316 | 5.0 | 8.0 | 0.00 | 0.54 | 0.00 | 43 | 1016.2 |
| 20260901100407 | 55 | 326 | 4.0 | 9.0 | 0.00 | 0.54 | 0.00 | 42 | 1016.2 |
| 20260901095407 | 56 | 327 | 2.0 | 7.0 | 0.00 | 0.54 | 0.00 | 41 | 1016.3 |
| 20260901094407 | 56 | 317 | 1.0 | 5.0 | 0.00 | 0.54 | 0.00 | 40 | 1016.3 |
| 20260901093407 | 56 | 344 | 2.0 | 7.0 | 0.00 | 0.54 | 0.00 | 40 | 1016.3 |
| 20260901092408 | 56 | 329 | 3.0 | 8.0 | 0.00 | 0.54 | 0.00 | 39 | 1016.3 |
| 20260901091407 | 56 | 327 | 4.0 | 9.0 | 0.00 | 0.54 | 0.00 | 40 | 1016.4 |
| 20260901090407 | 56 | 325 | 4.0 | 9.0 | 0.00 | 0.54 | 0.00 | 41 | 1016.3 |
| 20260901085407 | 56 | 326 | 4.0 | 8.0 | 0.00 | 0.54 | 0.00 | 40 | 1016.4 |
| 20260901084407 | 55 | 347 | 1.0 | 5.0 | 0.00 | 0.54 | 0.00 | 41 | 1016.4 |
| 20260901083407 | 55 | 323 | 3.0 | 6.0 | 0.00 | 0.54 | 0.00 | 43 | 1016.5 |